Wind_Speed
24 24 23 23 22 22 21 20 20 19 19 18 18 17 17 17 16 16 16 16 16 15 15 14 14 13 13 12 12 13 13 13 13 12 12 13 13 14 14 14 13 13 13 13 13 13 13 13 13 13 14 15 15 16 17 18 18 19 20 20 21 21 21 21 22 23 24 25 24 20 18 17 15 15 16 18 20 21 22 20 18 17 15 15 15 16 17 17
26 25 24 24 23 23 22 22 21 20 20 20 19 19 19 18 18 18 18 18 18 18 17 17 16 16 15 15 15 15 15 15 14 14 14 15 15 16 16 16 16 15 15 15 15 15 15 15 15 15 16 17 17 18 19 19 20 21 21 22 22 22 23 23 24 25 26 25 24 20 16 15 15 15 16 18 22 24 23 21 20 19 16 15 16 17 17 17
27 27 26 25 25 24 23 23 22 22 22 21 21 21 20 20 20 20 20 20 20 20 20 19 18 18 17 17 17 17 17 17 16 16 16 17 17 18 18 18 18 17 17 17 17 17 17 17 17 18 18 18 19 19 20 21 22 22 23 23 24 24 25 25 26 26 26 25 22 18 15 15 15 15 16 18 23 25 23 21 21 21 18 16 16 17 16 16
29 29 28 27 27 26 25 25 24 24 23 23 23 23 23 22 22 22 22 22 22 22 21 21 20 20 19 19 19 19 19 19 18 18 18 19 19 19 19 19 19 19 19 19 19 19 19 19 20 20 20 20 20 20 21 22 24 24 25 25 26 26 27 26 26 25 24 23 21 17 16 16 17 16 17 19 23 25 22 21 21 21 21 19 17 17 16 16
31 31 30 30 29 28 28 27 26 26 26 26 25 25 25 25 25 24 24 24 24 24 23 23 22 22 21 21 21 21 21 21 20 20 20 21 21 21 21 21 20 20 20 21 21 21 21 21 21 21 21 21 21 22 23 24 25 26 26 26 26 26 26 25 24 24 23 21 19 16 16 18 18 18 20 22 22 22 21 21 21 21 21 21 20 19 18 17
33 33 33 32 31 31 30 30 29 29 28 28 28 28 27 27 27 26 26 26 26 25 25 24 24 23 23 23 22 23 23 24 23 22 23 23 23 23 22 22 22 22 22 22 23 22 23 22 22 22 22 23 23 24 25 25 26 27 27 25 24 25 24 23 22 22 21 20 18 16 17 19 19 20 24 26 23 21 21 21 21 21 22 22 22 21 20 19
36 35 35 34 34 33 33 32 32 31 31 31 30 30 30 29 29 28 28 28 28 27 27 26 26 25 25 24 24 24 25 27 25 24 25 26 25 25 25 24 24 24 24 24 24 24 24 24 24 24 24 25 26 26 26 26 26 26 25 24 23 23 24 23 22 22 21 20 18 17 19 20 20 22 27 28 25 23 21 21 22 22 23 23 23 22 22 21
38 37 37 36 36 36 35 34 34 34 33 33 32 32 32 31 31 30 30 29 29 29 29 28 28 28 27 26 26 26 28 29 27 26 27 28 27 27 27 26 26 26 26 26 26 26 26 26 26 26 27 27 28 28 27 26 25 25 24 24 24 24 24 24 23 23 22 20 19 18 20 22 22 25 28 29 27 24 23 23 23 23 24 24 24 23 23 21
39 39 39 38 38 37 37 36 36 36 35 35 34 34 34 33 33 32 31 31 31 30 30 30 30 30 29 29 29 29 31 32 30 29 29 29 29 29 28 28 28 28 28 28 28 28 28 28 28 29 29 30 30 29 28 27 26 25 25 24 25 26 26 26 25 26 24 22 21 20 22 24 25 27 29 29 27 24 24 25 25 25 25 25 24 24 24 22
41 41 41 40 40 39 39 38 38 37 37 36 36 36 35 35 34 34 33 33 32 32 32 32 32 32 32 32 31 31 33 34 32 31 31 31 31 30 30 30 30 30 30 30 30 30 30 30 31 31 32 31 31 30 29 28 27 27 26 26 27 27 27 28 27 28 27 25 24 23 24 26 27 29 30 30 28 25 25 25 26 26 26 25 25 25 24 24
43 43 42 42 41 41 41 40 39 39 38 38 37 37 37 36 36 35 35 35 34 34 34 34 34 34 34 34 33 33 34 35 33 32 32 32 32 32 31 31 31 31 32 32 32 32 32 33 33 34 33 32 31 31 30 30 29 29 28 27 28 28 28 29 29 30 29 28 27 26 26 28 29 30 30 30 28 27 27 26 27 27 27 26 26 25 25 24
45 44 44 43 43 43 42 42 41 40 40 39 39 39 38 38 38 38 37 37 37 36 36 36 36 36 36 35 33 33 34 34 33 33 33 32 32 32 32 33 33 33 33 34 34 34 35 35 35 35 35 33 32 32 31 31 31 30 30 30 30 29 29 30 30 30 31 30 30 30 28 27 29 30 30 30 29 28 28 28 28 27 27 27 26 26 25 25
47 46 46 45 45 44 44 43 43 42 42 41 41 41 41 40 40 40 40 40 39 39 39 38 38 38 37 35 33 34 34 34 34 34 34 34 34 34 34 35 35 36 36 36 37 37 37 36 36 36 35 34 33 33 34 33 33 32 32 32 31 30 30 31 31 30 30 30 31 31 29 26 28 30 30 30 30 30 30 29 28 28 27 27 27 26 26 26
49 48 48 48 47 47 46 45 45 44 44 44 44 43 43 43 43 42 42 42 42 41 40 40 39 39 38 36 34 35 35 35 36 36 36 36 36 37 37 38 38 38 39 39 39 39 38 38 38 37 36 35 35 36 36 35 35 34 34 33 32 31 30 30 30 29 30 31 31 32 29 26 27 30 30 31 32 31 30 29 28 28 27 26 26 26 26 26
50 50 50 50 49 48 48 48 47 47 47 46 46 46 45 45 45 44 44 44 43 43 42 41 40 40 39 37 37 38 38 39 39 39 40 39 40 40 40 40 40 40 41 41 40 40 40 39 38 38 37 37 37 37 37 36 35 35 35 34 32 30 28 27 28 29 29 31 31 32 31 28 28 31 31 32 32 31 30 29 28 27 26 26 26 26 26 26
51 51 50 50 50 50 49 49 49 48 48 48 47 47 47 46 46 45 45 44 44 44 43 43 42 42 42 40 40 40 41 41 42 41 41 41 42 42 42 42 42 42 42 41 41 41 41 40 40 40 39 38 38 37 37 36 35 35 36 34 32 30 27 26 27 29 30 32 33 33 33 30 29 31 31 31 31 31 30 29 28 27 26 26 26 26 27 27
53 52 52 51 50 50 50 49 49 49 48 48 48 48 48 47 47 47 47 46 46 45 45 45 44 45 45 43 42 41 42 42 42 42 42 42 42 42 43 43 43 43 43 42 42 42 42 42 41 41 40 38 36 36 36 36 34 35 35 33 31 30 29 28 28 31 33 34 35 35 33 31 31 31 30 29 29 29 30 29 28 27 26 26 26 27 27 28
55 54 54 53 52 51 51 51 50 50 49 49 49 49 49 49 49 48 48 48 47 47 47 46 46 47 46 44 43 42 42 43 43 43 43 43 43 43 43 43 43 43 43 43 43 43 43 42 41 40 37 35 34 35 36 36 35 36 35 34 34 33 32 30 30 33 35 36 35 34 33 31 31 32 30 28 28 28 29 29 29 28 27 27 27 27 27 28
55 55 55 54 53 53 53 52 52 51 51 50 50 50 50 50 50 49 49 48 48 47 47 47 47 47 46 44 44 43 43 43 43 43 43 43 43 43 43 43 42 42 42 42 41 41 41 40 40 37 34 33 35 37 37 37 37 37 37 37 37 36 34 32 32 34 36 36 35 33 32 31 30 31 30 28 28 28 29 30 29 29 29 28 27 27 27 28
54 54 55 54 54 53 53 52 52 52 51 51 50 50 50 50 50 50 49 49 48 48 48 48 47 47 46 45 44 44 43 43 42 42 41 40 40 40 40 40 40 40 40 40 40 40 40 40 39 36 34 36 39 39 39 39 39 39 39 39 38 38 35 32 33 35 36 37 34 32 32 31 30 31 30 29 30 29 29 30 30 30 29 29 28 28 27 28
55 55 54 54 53 53 53 52 51 51 50 50 50 49 49 49 49 49 48 47 47 47 47 46 46 45 44 43 42 42 41 41 40 39 39 39 39 40 40 40 40 40 40 41 42 42 42 43 40 37 38 40 40 40 40 40 39 40 40 39 39 37 35 33 34 35 35 36 34 32 31 30 30 30 30 30 30 30 30 29 29 29 29 28 28 27 27 27
56 56 55 54 53 53 52 52 51 51 50 50 49 49 49 49 49 49 48 48 46 46 46 45 45 43 42 43 42 41 41 41 40 39 39 40 40 40 40 41 41 42 43 44 44 44 45 44 41 40 42 41 40 40 40 40 40 39 39 39 38 35 34 34 33 34 35 35 34 32 31 29 29 29 29 29 29 28 28 28 27 27 27 27 27 27 26 26
58 57 56 55 54 53 53 52 51 51 50 50 49 49 49 49 49 48 49 48 47 46 46 46 46 45 44 44 44 44 44 42 41 40 39 38 38 39 39 40 40 41 42 42 42 42 43 43 42 43 43 41 40 40 40 40 39 39 38 39 37 34 35 35 35 35 35 35 34 34 33 30 29 29 28 27 27 27 27 27 27 27 27 27 27 27 27 26
59 58 57 56 55 55 54 53 52 51 51 50 50 50 50 50 49 49 49 50 48 45 45 46 46 45 45 45 45 45 44 42 41 40 38 38 38 39 40 41 41 42 41 40 40 40 40 40 40 41 40 39 40 39 39 38 38 38 38 38 36 35 36 37 37 37 36 36 35 35 35 32 29 28 27 26 26 27 28 28 28 28 28 28 27 27 27 27
60 59 58 57 56 56 55 55 53 52 52 52 51 52 52 51 51 51 51 52 52 47 45 46 46 45 45 45 45 44 43 42 41 41 40 40 40 41 41 42 44 44 43 42 42 42 41 40 39 38 37 38 39 38 37 37 38 39 38 37 36 37 37 37 37 37 37 36 35 35 36 33 30 29 28 28 28 29 29 29 28 28 28 28 28 27 27 28
60 59 58 58 57 57 57 55 53 54 54 53 53 53 53 53 53 52 52 55 56 51 48 47 47 48 46 45 44 43 45 44 42 41 41 41 41 42 44 45 45 45 45 45 45 45 44 41 39 39 39 39 39 38 37 38 40 40 37 36 36 37 37 37 37 37 37 36 35 35 36 34 32 31 30 29 29 29 29 29 28 28 28 28 28 29 29 29
63 61 59 59 58 58 57 55 54 55 55 54 55 55 55 54 54 54 54 57 59 55 52 50 49 49 48 47 46 45 47 46 43 43 43 43 43 45 46 47 47 47 47 47 48 48 45 43 41 41 41 41 40 38 38 40 41 39 36 35 36 37 37 37 37 37 38 37 37 36 35 35 33 32 31 30 29 29 29 29 29 29 29 29 29 30 31 31
65 63 62 60 60 59 58 57 57 57 57 57 57 57 57 56 56 55 55 58 59 56 54 54 52 51 50 49 48 47 48 47 46 45 44 45 46 48 49 49 49 49 49 50 50 49 47 46 44 42 42 42 40 39 40 41 40 37 35 35 36 36 36 36 36 37 37 37 37 35 34 35 34 34 33 31 30 29 29 30 30 30 30 30 30 31 32 33
67 66 64 63 62 61 60 59 58 58 59 59 59 59 58 58 58 57 58 59 57 55 56 56 54 52 51 51 50 49 49 48 48 47 47 48 49 50 50 50 50 50 50 51 51 50 49 47 45 43 42 41 40 40 40 40 39 36 34 34 34 34 35 35 36 36 37 37 36 34 34 35 36 36 36 34 33 32 31 31 31 31 31 32 32 33 34 35
64 66 66 66 64 63 62 61 60 61 60 60 60 60 59 60 59 58 61 60 56 57 59 57 56 54 52 52 51 51 50 49 49 49 49 49 50 51 50 50 49 48 48 49 50 49 48 47 45 43 41 41 41 41 40 39 38 35 34 33 33 34 35 35 35 36 37 36 35 35 36 37 38 39 38 38 37 36 34 33 33 33 33 34 34 35 35 36
56 59 62 63 63 63 62 62 63 63 63 62 62 61 61 61 60 61 63 59 57 60 60 58 57 56 54 53 52 52 51 50 49 48 49 49 49 48 46 45 44 44 45 45 46 46 46 45 44 42 41 41 40 39 39 38 37 35 34 34 34 35 35 35 35 35 36 37 37 38 39 39 40 41 40 40 40 39 38 36 35 34 34 34 35 35 35 35
49 52 56 58 59 60 61 61 62 63 64 64 64 64 63 63 65 65 62 59 60 61 59 58 59 57 56 54 53 52 50 48 47 47 47 47 46 44 41 39 39 39 39 39 39 41 42 42 42 41 40 38 38 38 38 37 37 36 35 34 34 34 35 35 35 36 37 39 39 40 41 42 42 41 41 42 42 41 41 40 39 37 36 36 36 36 36 36
48 48 51 53 53 54 54 56 59 61 62 64 65 66 65 66 68 64 61 62 63 62 59 59 59 57 56 53 51 49 47 47 46 46 46 44 42 40 37 36 35 35 35 34 34 36 37 37 38 38 37 37 37 37 36 37 37 37 35 34 34 34 35 36 36 38 38 39 39 40 42 43 43 42 41 41 42 43 42 42 42 41 40 39 38 38 37 37
49 49 50 49 49 49 49 51 53 54 57 59 61 63 64 67 67 63 60 60 59 57 54 53 53 52 49 47 45 45 45 45 44 43 42 40 39 38 36 36 36 36 36 35 35 35 36 36 36 37 37 37 36 35 35 36 37 37 35 35 34 35 35 36 37 39 39 39 40 41 43 44 44 44 43 42 42 42 42 42 42 42 41 41 40 40 40 41
53 53 53 52 50 50 49 49 49 50 53 53 55 58 61 62 61 59 57 53 50 49 47 46 47 47 46 44 43 42 42 41 39 39 39 39 39 38 38 38 39 39 39 38 36 35 35 35 35 36 36 36 35 35 35 36 37 37 37 37 36 35 35 37 39 40 41 42 42 42 43 44 44 45 45 44 42 41 41 41 41 41 41 41 42 42 43 43
50 54 56 55 53 52 52 51 49 51 53 52 54 57 56 53 51 50 49 46 46 46 45 45 46 46 46 45 43 42 40 39 38 39 40 40 41 41 40 40 40 40 39 38 37 37 36 35 35 35 35 36 37 37 37 37 38 39 40 38 37 37 38 40 43 44 44 44 44 43 43 44 44 45 44 42 41 41 41 41 41 42 42 43 43 44 44 44
44 49 52 52 51 52 53 53 50 51 53 54 57 56 51 48 47 46 46 46 46 46 46 46 45 46 47 46 44 43 42 41 41 42 43 43 43 43 42 41 41 40 38 38 38 38 36 35 35 35 36 37 39 39 40 40 41 42 41 40 40 42 44 45 46 46 46 46 47 46 46 46 46 45 44 42 42 43 43 43 44 44 44 45 45 45 44 44
45 47 49 50 50 50 52 54 53 52 52 56 59 56 52 51 50 49 48 48 48 48 48 47 46 47 47 48 47 45 44 44 44 44 45 46 46 45 43 42 40 39 38 38 38 37 36 36 37 39 40 40 40 41 41 42 42 42 42 42 43 45 46 46 46 47 47 48 49 49 49 49 48 47 45 44 44 44 45 45 46 45 45 45 44 44 44 43
49 49 51 52 52 52 54 56 58 58 57 59 59 56 54 53 52 52 51 50 50 51 51 50 50 49 49 49 49 48 47 48 48 48 47 48 48 47 44 42 41 40 40 39 38 38 38 38 40 41 42 41 41 41 41 40 40 41 42 45 46 47 47 47 46 47 48 49 50 51 52 52 51 49 47 47 47 46 47 47 47 46 44 44 43 42 42 42
50 50 50 50 50 53 56 57 57 58 60 61 59 57 55 54 53 54 54 52 52 53 54 54 53 53 52 51 51 51 52 53 53 51 49 48 49 49 47 45 43 42 42 41 41 41 42 42 41 42 43 43 43 42 41 41 42 44 46 48 48 49 48 48 47 48 48 49 50 51 54 56 55 55 53 50 48 48 48 49 47 45 43 43 42 43 43 44
50 51 51 47 48 53 56 57 57 57 59 60 59 59 58 57 57 56 56 56 56 57 57 57 57 56 54 52 51 50 49 51 52 52 51 51 52 53 51 48 46 45 44 44 44 45 44 43 42 42 43 43 42 42 43 44 46 48 49 50 50 50 50 49 49 49 48 48 48 50 55 58 58 59 57 54 53 52 50 49 46 44 44 44 45 46 46 47
51 52 52 49 49 51 53 55 57 57 59 60 59 59 59 59 58 57 57 57 58 58 58 57 57 57 56 52 48 46 43 42 43 46 49 50 50 51 52 51 49 48 47 47 47 47 45 44 44 44 43 42 43 44 45 46 47 49 51 53 53 52 51 50 50 48 48 49 50 52 56 59 59 59 58 57 56 54 52 52 50 49 48 48 48 48 49 49
53 54 54 53 51 50 49 52 54 55 57 58 59 59 60 59 58 57 56 56 56 57 57 57 55 56 56 53 50 49 46 42 40 42 44 45 46 46 48 50 50 50 50 50 50 48 46 46 46 46 45 45 47 48 49 51 53 54 56 56 54 53 51 51 51 51 51 54 54 55 59 61 61 60 59 57 55 53 53 54 54 53 52 51 51 51 52 54
53 54 55 56 56 54 51 51 52 52 54 55 56 60 61 59 59 58 57 56 55 55 54 54 54 55 56 55 53 53 51 49 46 45 45 46 47 46 44 45 47 49 50 50 49 47 47 47 48 49 51 52 53 55 57 57 57 56 56 55 53 52 52 53 54 53 55 57 55 56 61 62 60 60 59 58 56 55 54 54 54 54 53 53 53 54 56 57
54 55 57 57 59 60 58 54 51 52 53 52 54 58 59 58 58 58 58 56 55 54 52 52 53 54 54 54 54 54 53 51 49 47 46 47 48 49 45 42 41 42 42 42 41 41 43 46 49 52 55 56 57 57 57 56 55 55 54 53 52 52 53 55 55 56 60 60 58 61 64 61 58 58 58 57 56 55 54 55 55 55 55 55 56 57 58 60
55 57 58 58 60 63 63 59 55 54 53 53 54 56 57 57 56 57 58 58 57 56 55 54 52 52 51 51 50 50 49 47 47 46 45 45 46 47 47 45 42 41 41 41 41 42 44 48 51 53 54 55 54 53 54 54 54 55 55 54 54 54 55 57 59 61 62 61 62 64 62 57 55 55 56 55 54 54 54 55 56 57 59 60 61 61 62 64
57 56 56 57 60 62 64 64 62 59 56 54 56 57 57 57 57 58 59 58 57 57 56 54 53 51 51 50 49 48 46 45 46 48 48 47 46 46 47 47 47 47 48 49 50 52 54 56 57 56 55 55 54 54 56 56 56 57 57 57 57 57 58 60 62 63 60 58 61 62 58 55 54 53 55 55 54 53 55 56 57 59 61 63 64 66 67 68
60 58 56 56 59 61 62 62 63 63 61 58 57 58 57 57 58 59 58 56 55 54 54 54 54 53 52 51 50 49 47 46 47 49 51 51 50 49 48 47 47 48 49 51 53 54 57 57 57 56 56 55 56 57 58 59 59 59 59 58 57 58 59 61 62 62 59 58 59 58 56 55 53 52 54 54 53 54 56 57 58 60 62 65 67 68 69 70
61 60 59 57 58 59 60 60 60 61 61 61 60 60 59 58 58 59 58 56 55 55 54 54 53 53 53 53 52 51 49 48 49 51 52 53 54 54 53 51 50 49 49 51 52 53 55 55 54 55 56 55 57 59 59 59 60 60 59 59 59 59 62 63 63 61 59 58 57 56 56 54 52 53 54 53 53 56 57 58 60 63 65 68 69 70 70 70
60 61 62 61 59 57 57 58 59 59 60 61 63 62 60 59 60 61 61 59 57 57 57 56 55 55 56 57 56 54 53 52 53 54 54 55 56 56 56 55 54 53 53 54 54 55 56 56 56 57 58 59 60 60 60 59 59 59 59 60 61 63 65 64 62 61 59 58 57 56 56 55 53 53 53 54 57 60 61 62 64 66 68 69 69 70 70 69
60 61 62 63 62 60 58 58 60 62 63 63 64 64 64 63 61 62 63 62 61 60 59 58 58 59 59 59 58 57 57 57 58 59 59 58 58 57 57 56 56 56 56 57 59 60 61 63 63 64 66 67 66 65 63 61 60 62 63 64 64 65 65 64 63 61 58 57 56 57 58 56 54 54 56 58 60 61 62 63 65 66 67 68 68 68 68 68
60 60 60 61 62 61 61 63 65 67 68 68 68 69 69 67 63 63 63 63 62 62 61 60 60 61 61 60 59 58 59 61 62 62 63 63 62 60 60 59 59 59 59 60 61 63 64 66 67 69 71 72 71 70 67 64 65 70 71 68 66 65 64 65 64 61 57 56 57 59 60 58 57 58 60 61 61 62 63 65 65 66 66 67 67 67 67 67
Wind_Direction
212 213 214 214 215 216 217 218 218 220 221 222 224 226 230 233 237 240 243 246 248 250 252 254 256 259 262 265 269 273 276 279 283 288 291 289 286 282 277 271 267 264 262 262 262 262 264 265 267 269 272 275 277 280 283 285 287 288 289 290 291 293 295 297 299 302 303 304 305 304 302 301 296 294 299 303 306 305 306 313 313 311 313 312 311 310 311 311
216 217 218 219 220 221 222 223 224 225 226 227 229 231 233 235 238 241 244 247 249 251 253 255 256 258 261 264 268 270 273 276 280 285 286 285 283 281 277 274 270 268 266 266 266 266 268 269 271 273 275 277 280 282 285 287 288 288 289 290 292 293 295 297 299 301 301 302 302 300 297 292 288 290 296 302 303 302 309 316 311 307 309 310 309 308 309 308
221 221 223 224 225 226 227 227 228 229 231 233 234 235 237 239 241 243 245 248 250 252 254 255 256 258 261 264 267 270 272 274 278 281 283 283 281 279 277 274 272 270 269 269 270 271 272 273 275 277 278 280 282 284 286 287 289 289 290 291 292 294 295 296 298 299 299 299 298 296 290 283 281 284 292 299 300 303 313 314 306 305 307 309 309 308 308 307
225 226 226 227 228 229 230 231 232 233 235 236 238 239 240 242 243 245 247 249 251 252 254 255 257 258 261 264 267 270 272 274 277 279 281 280 279 277 276 274 272 271 270 271 272 273 274 276 277 279 280 282 283 285 287 288 289 290 290 291 292 293 293 295 296 296 296 296 295 292 284 280 278 281 288 293 297 305 311 306 302 306 309 311 310 309 307 305
229 229 229 230 231 232 233 234 235 236 238 239 240 241 242 244 245 246 248 249 251 253 254 255 257 259 261 264 267 270 273 275 276 279 280 278 277 277 275 273 272 271 271 272 273 274 275 276 278 279 281 283 285 287 288 289 290 290 290 291 293 292 292 294 294 293 293 293 292 289 282 280 281 284 288 291 298 304 303 301 303 306 308 310 310 309 306 303
232 232 233 233 233 234 235 236 237 238 240 241 242 243 244 245 246 248 249 250 252 253 254 256 257 259 262 265 268 271 274 275 277 280 279 277 277 276 274 273 272 272 272 272 273 274 275 276 278 280 282 284 286 288 289 289 289 290 290 291 291 291 291 291 291 290 290 290 289 286 281 280 284 289 290 293 300 301 300 302 305 305 306 307 307 307 305 303
234 234 235 235 235 235 236 237 238 239 241 242 243 244 245 246 248 249 250 251 252 254 255 256 258 260 263 266 269 272 274 275 277 279 278 278 277 275 274 273 272 272 272 273 273 274 275 277 278 280 283 285 287 289 289 289 289 288 289 290 290 290 291 290 289 288 287 287 286 283 280 280 285 290 292 296 301 302 303 303 302 303 304 304 303 303 303 303
235 236 236 237 237 237 237 238 239 240 241 242 244 245 246 248 249 250 251 252 253 255 256 258 260 262 264 267 269 272 274 276 278 277 277 277 276 274 273 273 272 272 272 273 274 275 276 278 279 281 284 286 289 290 289 289 287 287 287 289 289 289 290 290 289 287 286 285 283 281 280 282 286 290 292 296 300 303 304 302 301 302 301 301 300 300 300 301
236 237 237 238 238 239 239 240 240 241 242 244 245 246 247 248 249 250 252 253 254 256 257 259 261 263 265 267 270 272 273 275 277 277 276 275 274 273 272 272 271 272 272 273 274 275 277 279 281 283 286 288 290 289 289 287 285 285 286 288 288 288 289 288 287 287 286 284 282 281 281 284 288 290 292 294 298 301 300 299 300 299 298 298 298 298 297 297
238 238 239 239 240 240 241 241 242 243 244 245 246 247 248 249 250 251 252 253 255 256 258 260 262 264 266 268 270 271 272 274 275 275 274 272 272 271 271 270 270 270 271 272 273 275 277 280 282 285 287 288 289 288 288 286 285 285 285 286 287 287 287 286 285 285 285 283 282 281 282 285 288 289 291 293 296 297 295 296 296 295 295 295 295 295 295 294
240 240 241 241 241 242 243 243 244 245 245 246 247 248 249 250 251 252 253 254 256 257 259 262 264 266 267 269 271 270 272 274 274 273 272 271 271 270 270 269 269 270 271 272 273 276 278 280 283 285 287 287 288 287 286 285 285 285 285 286 285 285 285 284 283 283 283 283 282 282 282 284 286 287 289 291 293 293 292 293 293 293 294 293 293 292 292 291
241 242 242 243 243 244 244 245 246 246 247 248 249 250 251 252 253 254 255 256 257 259 261 263 265 267 268 270 270 270 271 272 272 272 271 270 270 270 270 269 270 271 272 273 275 277 279 281 283 284 286 286 286 285 284 284 284 285 286 285 285 284 283 281 280 281 282 283 283 282 281 283 285 286 287 288 290 290 291 291 292 292 292 292 291 290 288 286
243 243 244 244 245 245 246 247 248 248 249 250 251 252 253 254 255 256 257 259 260 261 263 264 266 267 268 268 269 269 270 270 271 271 270 270 270 270 270 270 271 272 273 275 276 278 280 281 282 283 284 285 284 284 284 284 284 285 284 284 283 282 281 280 280 281 282 281 281 280 281 282 283 284 285 286 287 288 290 290 291 291 290 290 289 288 286 284
244 245 245 246 246 247 248 248 249 250 251 252 253 254 255 256 258 259 260 261 262 263 264 265 265 266 266 267 267 268 269 269 269 270 270 270 270 270 271 271 272 273 275 276 277 279 280 281 282 282 283 283 283 283 284 284 284 284 284 282 280 278 278 280 281 282 280 280 279 280 280 280 281 283 284 285 286 287 288 289 289 288 288 287 286 285 284 283
246 246 247 247 248 248 249 250 250 251 252 253 255 256 257 258 259 260 261 262 263 263 264 264 265 265 266 266 266 268 268 269 269 269 270 271 271 271 272 272 273 274 275 276 278 279 280 280 281 282 282 282 283 283 284 284 284 284 282 279 278 278 279 280 280 280 279 279 279 280 281 281 281 282 283 284 286 288 288 288 287 287 286 284 283 281 281 281
247 248 248 248 249 250 250 251 251 252 253 254 256 257 258 259 260 261 262 262 263 264 264 264 265 265 266 266 267 267 268 269 269 270 271 271 271 272 273 274 275 275 276 277 278 279 280 281 281 281 282 282 283 284 284 284 284 282 279 279 281 281 281 280 279 280 279 279 279 279 281 282 281 280 281 283 285 287 287 286 286 285 284 282 281 280 280 280
247 248 249 250 250 251 252 252 253 253 254 255 256 257 258 259 260 261 262 263 263 264 264 265 266 266 266 267 267 267 268 269 270 270 271 271 272 273 274 274 275 276 277 278 278 279 280 280 281 281 281 283 285 286 283 282 281 279 280 282 283 283 282 282 282 281 280 280 280 280 282 283 281 280 281 282 284 284 284 283 282 282 281 281 280 280 280 280
247 248 249 250 251 252 252 253 254 254 255 256 257 258 259 260 261 262 262 263 264 265 265 266 266 266 266 267 267 268 268 269 270 270 271 272 272 273 274 275 275 276 277 278 279 279 279 279 280 280 283 286 286 283 280 280 281 281 283 284 284 284 284 284 284 281 279 279 279 280 282 281 281 281 282 283 282 281 281 281 280 279 279 278 278 278 279 280
247 248 249 250 250 251 252 253 254 255 256 257 258 259 260 261 262 262 263 263 264 265 265 265 265 266 267 268 268 268 268 269 270 270 271 271 272 273 274 274 275 276 277 278 278 278 278 278 278 281 285 285 281 278 279 281 282 283 284 284 284 284 284 287 285 280 279 278 278 280 280 280 280 281 282 281 279 278 278 278 277 276 276 275 275 275 276 277
247 248 248 249 250 251 252 253 254 255 256 257 258 259 260 261 262 262 263 263 264 264 264 265 266 267 267 267 268 268 268 268 268 269 270 271 272 272 273 274 275 276 276 277 277 277 277 277 278 282 283 279 277 278 280 281 282 283 283 283 284 284 286 286 282 279 279 278 279 279 279 280 281 281 281 279 277 276 275 275 274 274 274 273 273 273 273 273
246 248 249 249 250 251 252 252 253 254 255 256 257 258 259 260 261 261 262 262 263 263 264 264 265 266 267 267 266 266 266 266 267 268 269 270 271 272 273 274 275 275 276 276 275 276 276 277 279 280 278 276 277 279 280 280 281 281 282 282 283 284 285 283 280 279 279 279 280 280 280 281 281 280 279 277 276 275 274 273 272 271 271 271 272 272 272 271
245 246 248 249 250 251 251 252 253 254 255 256 257 258 258 259 260 260 261 261 261 262 263 263 264 265 265 265 265 265 265 266 266 268 269 270 271 273 274 274 274 275 274 274 275 276 276 276 278 276 275 276 278 278 279 279 279 280 280 280 280 282 283 280 279 278 279 279 281 281 281 281 279 278 278 277 276 275 274 272 270 270 269 270 270 270 270 270
244 245 246 247 249 250 251 252 253 254 255 256 256 257 258 258 259 260 260 260 259 260 262 262 263 263 264 265 265 265 265 265 266 266 267 269 271 273 274 274 275 274 273 274 275 275 275 276 276 274 274 276 277 276 277 277 278 278 278 278 279 281 279 277 277 277 278 279 280 280 279 278 278 277 277 276 275 274 273 272 271 271 271 271 270 269 269 269
243 244 245 246 247 249 250 251 252 253 255 256 256 257 258 258 259 259 260 260 259 258 260 262 263 263 264 264 264 264 265 265 265 265 267 269 272 274 275 275 274 273 274 275 275 274 274 276 276 275 275 275 275 274 274 275 276 276 276 278 279 278 276 277 277 277 277 277 277 278 277 276 277 277 276 275 275 274 273 273 274 274 274 274 274 273 273 273
243 244 245 246 247 248 249 250 252 253 254 255 257 258 258 259 260 260 261 262 259 257 258 260 262 263 263 263 264 265 265 264 264 265 267 271 273 275 276 276 275 274 273 273 273 272 272 274 276 276 275 274 274 273 273 274 274 274 275 277 278 277 276 277 277 277 277 277 276 276 276 277 277 277 277 277 277 276 276 276 277 277 277 278 279 280 280 279
243 243 244 245 247 248 249 250 252 253 254 255 256 257 258 259 260 261 262 262 260 259 258 259 260 262 262 263 264 265 264 264 265 267 269 271 273 275 276 276 277 275 273 271 271 270 271 273 274 273 272 273 273 273 273 273 272 273 275 276 276 276 276 276 276 277 277 277 277 277 278 280 280 279 279 279 279 279 279 279 279 279 280 281 283 284 284 283
244 244 244 245 247 248 249 250 251 252 253 255 256 257 258 259 260 261 262 263 262 260 260 259 259 260 262 263 263 264 265 266 267 267 269 272 273 274 275 276 277 275 273 270 269 269 270 271 272 272 272 272 272 272 271 271 272 275 276 275 274 274 274 275 276 277 278 278 278 278 281 281 280 281 281 280 279 280 280 280 280 280 282 283 284 285 285 284
244 245 245 246 247 248 249 250 251 252 253 254 255 256 257 258 259 260 261 262 262 262 262 261 259 259 261 262 263 264 265 267 267 268 270 272 273 273 275 276 276 274 271 269 268 269 269 269 269 270 271 271 271 270 269 270 272 275 275 273 272 273 274 275 276 277 278 279 279 281 283 282 280 280 280 279 280 280 280 281 281 282 282 283 284 284 284 283
244 246 247 247 248 248 249 250 252 253 254 255 256 256 257 258 259 260 260 261 262 264 264 264 263 262 262 263 264 264 265 266 268 269 270 271 272 273 275 275 275 273 270 268 267 268 268 268 268 268 268 269 269 269 269 270 271 272 272 271 272 273 274 275 276 278 279 279 281 284 285 282 279 278 279 281 281 281 282 282 282 283 283 284 284 283 282 281
245 245 247 248 249 250 251 252 253 254 254 255 255 256 257 257 258 259 259 260 263 265 266 267 268 267 265 264 264 264 265 266 268 268 269 270 272 273 273 273 272 271 269 268 266 266 266 267 267 267 267 267 267 268 269 269 270 270 270 270 271 271 272 274 276 279 280 282 285 286 284 281 279 278 280 283 283 284 284 284 283 282 282 282 282 282 281 281
247 247 247 249 250 251 252 252 253 253 253 253 254 255 255 257 257 257 258 261 264 265 267 268 269 268 267 266 265 265 266 266 267 267 269 271 271 271 270 269 269 269 268 267 266 265 265 265 265 265 265 266 266 268 268 269 269 268 268 268 268 269 271 274 276 279 281 284 285 284 282 281 280 281 283 285 286 287 287 286 284 283 282 281 281 282 282 282
246 247 248 248 248 249 250 251 252 252 253 253 253 254 255 256 255 255 259 262 263 264 267 267 268 269 269 268 266 266 265 264 265 266 268 269 268 266 265 266 268 269 270 269 267 265 263 262 262 263 263 265 266 268 268 268 267 266 265 265 267 269 272 273 276 279 280 280 280 280 280 280 281 283 285 287 288 288 287 286 285 284 283 283 283 284 284 283
244 246 247 247 246 247 248 249 251 253 255 255 254 255 255 255 255 257 261 262 262 265 266 266 266 268 268 267 266 265 264 262 263 265 266 264 262 260 262 266 269 270 271 269 265 263 262 262 262 264 265 266 267 268 268 267 266 265 265 266 268 271 273 274 277 277 276 275 276 277 278 280 282 284 285 285 285 285 285 285 285 286 286 286 287 287 287 286
246 246 246 246 245 244 244 246 249 252 254 253 253 253 251 252 256 259 259 259 260 262 263 262 263 265 266 267 265 264 263 262 262 262 261 258 256 258 263 268 269 269 268 265 264 263 264 264 265 265 266 266 267 267 267 266 266 266 267 268 269 272 275 276 275 275 273 273 275 277 279 282 284 284 283 282 281 281 282 283 284 286 288 290 292 292 292 290
245 244 244 244 244 244 245 245 248 249 250 250 249 247 246 250 255 256 256 256 257 257 258 259 261 263 265 265 264 263 262 261 259 257 256 255 255 258 262 266 268 267 266 264 264 264 263 264 264 265 266 266 266 266 266 266 266 266 268 270 272 275 276 275 274 275 275 275 278 281 284 286 287 285 283 281 281 281 282 283 285 288 290 292 293 292 291 289
243 243 241 242 243 246 248 247 247 248 250 250 249 247 247 251 254 254 254 254 253 253 254 256 258 260 263 264 264 263 261 259 256 254 254 254 255 257 261 264 266 266 264 262 262 263 263 264 264 265 266 267 267 266 265 265 265 266 268 271 275 276 275 274 275 276 276 278 283 287 289 290 288 286 285 284 283 283 284 286 288 290 292 292 291 289 287 285
245 244 243 243 244 246 247 245 243 243 245 246 246 248 251 251 251 251 252 252 252 252 252 253 255 259 262 263 262 260 259 259 257 255 254 255 256 258 261 263 264 263 261 259 260 261 263 265 267 267 268 267 267 267 266 265 265 267 271 274 275 274 273 274 275 277 277 280 286 291 292 292 290 287 287 286 285 286 288 290 291 292 292 290 288 286 284 283
244 246 246 247 247 247 246 242 239 239 240 240 241 244 247 247 247 249 250 251 251 252 252 252 253 256 260 261 260 259 259 261 260 257 255 256 258 260 261 262 260 258 257 256 256 258 261 266 269 270 270 269 268 266 265 266 267 270 272 272 271 271 271 273 274 277 279 282 288 292 293 293 291 289 287 287 286 287 289 290 290 291 290 287 285 283 283 284
244 246 247 248 248 248 246 242 239 240 240 240 240 240 241 243 245 245 246 248 251 252 253 253 253 254 256 258 259 258 259 261 262 261 259 259 260 261 261 261 258 255 254 253 253 256 260 266 270 272 273 271 268 266 266 267 269 269 268 269 269 270 272 274 276 278 279 282 287 291 292 293 292 289 287 286 287 288 290 290 290 290 288 285 283 282 283 284
244 245 245 246 248 247 245 241 238 239 241 241 242 242 241 242 243 244 245 247 250 252 253 254 254 255 257 258 258 259 260 261 260 260 259 259 261 262 263 262 259 255 253 251 253 257 262 267 271 273 273 271 268 267 268 268 267 266 267 270 273 273 275 277 278 279 278 280 284 288 292 294 293 290 289 289 289 289 289 290 290 289 287 285 284 283 284 284
242 244 243 244 246 244 242 239 236 237 239 240 242 243 242 241 241 242 244 246 247 250 252 253 254 255 257 257 258 259 260 260 260 259 259 259 263 266 266 263 259 255 253 252 255 260 265 269 271 272 271 270 269 269 269 268 267 267 269 272 275 277 278 277 279 279 276 275 277 279 287 294 292 290 292 293 292 292 291 290 289 287 286 284 284 285 286 286
239 240 240 241 244 241 238 237 236 235 237 239 242 244 243 242 241 241 242 243 245 247 249 251 252 252 252 253 254 253 252 252 253 255 257 259 261 263 264 264 260 257 255 256 259 264 266 268 270 271 269 267 265 265 265 264 263 264 268 273 278 279 277 274 273 273 269 269 270 271 281 291 290 288 291 291 291 293 292 291 290 289 288 287 288 289 289 289
236 238 238 239 241 237 235 239 239 236 238 241 243 244 244 243 241 240 241 242 244 246 248 249 249 248 248 247 246 246 245 243 243 245 246 249 250 252 256 260 261 260 260 260 263 265 265 265 265 264 262 260 260 261 261 260 262 265 271 276 277 275 270 265 264 264 265 269 273 273 279 287 287 287 289 288 288 289 289 289 290 290 289 290 292 293 292 290
236 238 239 239 240 238 236 239 241 241 242 243 243 241 241 241 239 238 239 241 241 242 244 244 242 241 241 240 239 240 241 241 242 244 244 245 247 250 253 256 259 261 261 261 263 263 261 260 259 258 258 259 261 262 263 264 266 268 270 271 269 265 262 261 262 264 267 272 275 275 279 284 286 286 287 287 287 287 287 289 290 290 290 291 292 292 291 290
233 236 237 238 239 240 239 239 240 242 243 243 242 240 239 240 239 238 239 240 240 239 238 237 236 235 235 235 236 237 239 240 243 247 248 248 249 251 253 255 257 257 258 258 258 258 257 257 258 260 262 265 267 265 264 265 264 264 264 263 261 260 260 263 265 267 271 274 276 277 280 283 284 285 285 286 287 288 289 289 289 289 290 291 291 290 290 290
230 233 235 236 238 240 240 239 239 241 242 243 242 241 239 239 238 237 238 240 240 239 238 238 237 236 236 236 238 240 242 244 246 247 247 248 249 251 253 254 253 252 252 252 252 252 253 255 258 260 262 266 266 263 261 260 258 259 260 261 261 262 264 266 268 271 274 276 276 277 279 281 281 282 283 283 285 287 288 289 289 290 291 291 291 291 291 291
228 231 233 236 239 240 241 241 241 242 243 243 244 243 241 240 238 237 237 239 239 238 237 238 238 238 240 242 245 245 245 245 246 247 247 247 250 252 254 255 255 256 256 256 256 257 257 259 261 260 261 262 261 259 259 260 258 258 260 262 264 265 266 268 270 273 275 275 275 277 279 280 280 282 283 285 287 289 290 291 291 289 289 291 292 293 293 293
230 231 232 234 238 241 242 243 244 245 245 245 245 243 241 240 238 237 237 237 235 234 233 233 235 237 240 243 245 246 245 244 245 249 251 250 251 252 253 254 255 255 255 255 256 255 255 257 257 256 257 259 257 256 258 259 260 261 263 265 266 267 268 268 269 271 274 276 278 279 279 280 283 285 286 288 289 289 289 289 287 285 286 288 290 292 292 291
233 234 234 234 236 240 242 243 244 246 247 247 246 244 242 241 240 238 237 236 234 233 232 232 234 236 239 242 244 246 247 246 245 246 248 250 252 254 255 255 254 252 251 249 248 247 247 249 250 251 254 255 255 256 258 259 261 262 263 266 268 268 268 268 270 275 278 279 279 280 280 281 285 287 286 286 286 285 283 283 282 283 285 287 289 289 289 288
234 234 235 236 238 240 242 243 243 245 245 245 245 244 244 244 243 241 239 238 237 236 236 237 238 238 240 243 247 251 253 250 246 244 244 246 251 255 258 258 257 256 254 251 250 249 249 251 252 254 257 258 260 262 264 264 264 263 263 265 267 267 269 273 277 281 281 280 280 280 281 283 285 286 284 282 281 281 281 282 282 283 285 286 286 286 285 284
235 235 236 238 241 243 245 245 245 245 244 244 244 245 245 246 244 242 241 241 241 241 241 240 240 241 243 246 251 254 254 251 247 245 245 245 248 251 254 255 257 257 257 256 256 256 257 258 259 261 263 264 266 268 269 268 267 266 266 268 270 272 276 279 281 281 280 280 281 281 282 284 284 282 280 279 279 280 281 282 282 282 283 283 282 282 281 281
236 236 236 238 241 243 243 242 240 240 241 241 241 240 241 241 240 238 238 239 240 240 241 240 240 241 244 248 250 250 248 247 247 247 246 247 248 249 250 251 253 254 255 256 258 259 260 261 262 263 264 265 265 268 270 270 269 268 269 271 274 277 279 279 278 279 280 281 281 282 283 283 282 280 280 281 281 281 281 280 280 281 281 280 280 280 280 280
Height
5848 5850 5851 5852 5853 5855 5856 5857 5858 5859 5860 5861 5862 5863 5864 5865 5865 5866 5867 5868 5869 5869 5870 5871 5871 5872 5872 5873 5873 5874 5874 5874 5874 5875 5875 5876 5876 5876 5877 5877 5877 5878 5878 5878 5878 5878 5879 5879 5879 5879 5879 5879 5879 5879 5879 5879 5879 5878 5878 5878 5878 5878 5878 5877 5877 5877 5876 5875 5875 5875 5875 5874 5874 5873 5872 5871 5870 5870 5871 5872 5873 5873 5874 5874 5873 5872 5872 5871
5846 5848 5849 5850 5851 5852 5854 5855 5856 5857 5858 5859 5860 5861 5862 5863 5864 5864 5865 5866 5867 5868 5869 5869 5870 5870 5871 5871 5872 5872 5872 5873 5873 5873 5874 5874 5874 5875 5875 5875 5876 5876 5876 5876 5876 5877 5877 5877 5877 5878 5878 5878 5878 5878 5877 5877 5877 5877 5876 5876 5876 5876 5876 5875 5875 5875 5874 5873 5873 5873 5873 5872 5872 5871 5871 5870 5868 5868 5870 5871 5870 5871 5872 5872 5871 5871 5870 5870
5844 5845 5846 5848 5849 5850 5851 5853 5854 5855 5856 5857 5858 5859 5860 5861 5862 5862 5863 5864 5865 5866 5867 5867 5868 5869 5869 5870 5870 5870 5871 5871 5871 5872 5872 5872 5872 5873 5873 5874 5874 5874 5875 5875 5875 5875 5875 5875 5876 5876 5876 5876 5876 5876 5875 5875 5875 5874 5874 5874 5874 5874 5873 5873 5873 5872 5872 5871 5871 5871 5871 5871 5870 5870 5870 5869 5867 5866 5868 5869 5868 5868 5869 5870 5870 5869 5869 5868
5841 5842 5844 5845 5846 5848 5849 5850 5851 5852 5853 5854 5855 5856 5857 5858 5859 5860 5861 5862 5863 5863 5864 5865 5866 5867 5867 5867 5868 5868 5868 5869 5870 5870 5870 5870 5870 5871 5871 5872 5872 5872 5873 5873 5873 5873 5873 5873 5873 5874 5874 5874 5874 5874 5873 5873 5872 5872 5872 5872 5872 5871 5871 5871 5870 5870 5870 5869 5869 5870 5869 5869 5868 5868 5868 5868 5866 5866 5867 5867 5866 5865 5865 5867 5867 5867 5867 5867
5838 5840 5841 5842 5844 5845 5846 5848 5849 5850 5851 5852 5853 5854 5855 5856 5857 5858 5859 5860 5860 5861 5862 5863 5864 5864 5865 5865 5866 5866 5866 5866 5867 5868 5868 5868 5868 5869 5869 5870 5870 5870 5870 5871 5871 5871 5871 5871 5871 5871 5871 5871 5871 5871 5871 5871 5870 5869 5869 5869 5869 5868 5868 5868 5868 5867 5867 5867 5867 5868 5867 5866 5866 5866 5866 5866 5866 5866 5865 5864 5864 5864 5863 5863 5864 5864 5864 5864
5836 5837 5838 5839 5841 5842 5843 5845 5846 5847 5848 5849 5850 5851 5852 5853 5854 5855 5856 5857 5858 5859 5859 5860 5861 5862 5862 5863 5863 5864 5863 5864 5865 5866 5866 5866 5866 5866 5867 5867 5868 5868 5868 5868 5868 5868 5868 5869 5869 5869 5869 5869 5869 5869 5869 5868 5868 5867 5867 5867 5866 5865 5865 5866 5866 5865 5865 5865 5866 5866 5865 5864 5864 5864 5862 5862 5864 5864 5863 5862 5862 5862 5861 5861 5861 5861 5861 5861
5833 5834 5835 5837 5838 5839 5840 5842 5843 5844 5845 5846 5847 5848 5849 5851 5852 5853 5854 5854 5855 5856 5857 5857 5858 5859 5860 5860 5861 5861 5861 5860 5863 5864 5863 5863 5864 5864 5864 5865 5865 5865 5865 5866 5866 5866 5866 5866 5866 5866 5866 5866 5867 5867 5866 5866 5866 5865 5864 5864 5864 5863 5863 5863 5863 5863 5863 5863 5864 5864 5863 5862 5862 5861 5859 5859 5861 5861 5861 5861 5860 5859 5859 5859 5858 5858 5858 5858
5830 5831 5832 5834 5835 5836 5837 5838 5840 5841 5842 5843 5844 5845 5847 5848 5849 5850 5851 5852 5852 5853 5854 5855 5856 5856 5857 5858 5858 5859 5858 5858 5860 5861 5860 5860 5861 5861 5862 5862 5862 5863 5863 5863 5863 5863 5863 5863 5863 5864 5864 5864 5864 5864 5864 5863 5863 5862 5862 5862 5861 5861 5860 5860 5860 5860 5861 5861 5861 5862 5860 5859 5860 5858 5857 5856 5857 5858 5858 5857 5857 5857 5856 5856 5856 5855 5855 5855
5826 5827 5829 5830 5831 5833 5834 5835 5836 5838 5839 5840 5841 5842 5843 5844 5846 5847 5848 5849 5849 5850 5851 5852 5853 5853 5854 5855 5856 5856 5855 5855 5856 5858 5858 5858 5858 5858 5859 5859 5859 5860 5860 5860 5860 5860 5860 5860 5860 5861 5861 5861 5861 5860 5860 5860 5860 5860 5860 5859 5859 5858 5858 5857 5857 5856 5857 5858 5858 5859 5858 5857 5857 5855 5854 5853 5854 5855 5854 5854 5854 5854 5853 5853 5853 5853 5852 5852
5822 5824 5825 5827 5828 5829 5830 5832 5833 5834 5836 5837 5838 5839 5840 5841 5842 5843 5844 5845 5846 5847 5848 5849 5849 5850 5851 5852 5853 5853 5851 5852 5854 5854 5855 5855 5855 5855 5856 5856 5857 5857 5857 5857 5857 5857 5857 5857 5857 5857 5857 5857 5857 5857 5857 5857 5857 5857 5857 5857 5856 5856 5855 5854 5854 5853 5854 5855 5855 5856 5855 5854 5853 5852 5851 5850 5851 5852 5851 5851 5851 5851 5851 5850 5850 5850 5849 5849
5818 5820 5821 5823 5824 5825 5827 5828 5830 5831 5832 5833 5834 5836 5837 5838 5839 5840 5841 5842 5843 5844 5845 5845 5846 5847 5848 5848 5850 5849 5848 5849 5850 5851 5851 5851 5852 5852 5853 5853 5853 5854 5854 5854 5854 5854 5854 5854 5854 5854 5854 5854 5854 5854 5854 5854 5854 5854 5854 5854 5854 5853 5853 5852 5851 5851 5851 5851 5852 5852 5852 5852 5850 5849 5848 5847 5848 5848 5848 5848 5848 5848 5847 5847 5847 5847 5847 5846
5814 5816 5817 5819 5820 5822 5823 5825 5826 5827 5828 5830 5831 5832 5833 5834 5835 5836 5837 5838 5839 5840 5841 5842 5843 5843 5844 5845 5846 5845 5846 5846 5847 5847 5848 5848 5848 5849 5849 5850 5850 5850 5850 5850 5851 5851 5851 5851 5851 5850 5850 5851 5851 5850 5850 5850 5850 5851 5851 5851 5851 5850 5850 5849 5848 5848 5848 5848 5848 5848 5849 5849 5847 5846 5846 5845 5845 5845 5845 5845 5845 5845 5844 5844 5844 5844 5843 5843
5810 5811 5813 5814 5816 5818 5819 5821 5822 5823 5825 5826 5827 5828 5829 5830 5831 5832 5833 5834 5835 5837 5838 5838 5839 5840 5841 5842 5842 5842 5842 5843 5843 5844 5844 5845 5845 5846 5846 5846 5846 5846 5847 5847 5847 5847 5847 5847 5847 5847 5847 5847 5847 5847 5846 5847 5847 5847 5847 5847 5847 5847 5846 5846 5845 5846 5845 5845 5844 5844 5846 5847 5845 5843 5843 5842 5842 5842 5842 5842 5842 5842 5841 5840 5840 5840 5840 5839
5805 5807 5808 5810 5812 5813 5815 5816 5818 5819 5820 5821 5823 5824 5825 5826 5827 5828 5829 5830 5831 5832 5833 5834 5835 5836 5837 5839 5839 5838 5839 5839 5840 5840 5840 5841 5842 5842 5842 5842 5842 5843 5843 5843 5843 5843 5843 5843 5843 5843 5844 5843 5843 5843 5843 5843 5843 5843 5843 5843 5843 5843 5844 5843 5843 5843 5842 5841 5841 5840 5842 5844 5842 5841 5840 5839 5839 5839 5839 5839 5839 5838 5838 5837 5837 5836 5836 5836
5800 5802 5804 5805 5807 5809 5810 5812 5813 5814 5816 5817 5818 5819 5821 5822 5823 5824 5825 5826 5827 5828 5829 5830 5831 5832 5833 5835 5835 5835 5835 5835 5836 5836 5837 5837 5838 5838 5838 5838 5838 5838 5839 5839 5839 5839 5839 5839 5839 5839 5840 5840 5840 5839 5839 5839 5839 5839 5838 5838 5839 5840 5841 5841 5840 5839 5838 5837 5837 5837 5837 5840 5840 5838 5837 5836 5835 5836 5835 5835 5835 5835 5835 5834 5834 5833 5833 5832
5795 5797 5799 5801 5802 5804 5805 5807 5808 5810 5811 5812 5813 5815 5816 5817 5818 5819 5820 5822 5822 5824 5825 5826 5827 5828 5829 5831 5831 5831 5831 5831 5832 5832 5833 5833 5833 5833 5833 5834 5834 5834 5834 5834 5834 5834 5834 5834 5835 5835 5835 5836 5836 5836 5835 5834 5835 5834 5832 5833 5835 5836 5837 5838 5837 5836 5835 5834 5833 5833 5834 5835 5836 5834 5834 5833 5832 5832 5831 5831 5831 5831 5831 5831 5830 5830 5829 5829
5790 5792 5794 5796 5798 5799 5801 5802 5803 5805 5806 5807 5808 5810 5811 5812 5813 5814 5816 5817 5818 5819 5820 5821 5822 5823 5824 5826 5827 5827 5827 5827 5828 5828 5828 5829 5829 5829 5829 5829 5829 5829 5830 5830 5830 5830 5830 5830 5830 5830 5831 5832 5832 5831 5830 5830 5830 5829 5829 5830 5831 5832 5833 5834 5834 5832 5831 5830 5829 5829 5830 5831 5831 5830 5830 5830 5830 5829 5828 5828 5827 5827 5827 5827 5827 5826 5826 5826
5785 5787 5789 5791 5793 5794 5796 5797 5798 5800 5801 5802 5803 5805 5806 5807 5808 5810 5811 5812 5813 5814 5815 5817 5817 5818 5819 5821 5822 5823 5823 5823 5823 5823 5824 5824 5824 5824 5825 5825 5825 5825 5825 5825 5825 5825 5825 5825 5825 5826 5827 5828 5828 5826 5825 5825 5825 5825 5826 5826 5827 5827 5828 5830 5830 5828 5826 5825 5825 5825 5826 5827 5826 5825 5826 5827 5826 5825 5824 5824 5824 5824 5823 5823 5823 5823 5822 5822
5779 5781 5783 5785 5787 5789 5791 5792 5793 5795 5796 5797 5798 5800 5801 5802 5803 5804 5806 5807 5809 5809 5810 5811 5812 5813 5815 5816 5817 5818 5818 5818 5818 5819 5819 5819 5820 5820 5820 5820 5820 5821 5821 5821 5821 5821 5820 5821 5821 5822 5824 5824 5822 5821 5821 5821 5821 5821 5822 5822 5822 5823 5824 5826 5825 5822 5821 5820 5821 5822 5821 5822 5822 5821 5822 5823 5823 5822 5821 5820 5820 5820 5820 5819 5819 5819 5819 5819
5774 5776 5777 5780 5782 5784 5785 5787 5788 5790 5791 5792 5794 5795 5796 5797 5798 5799 5800 5802 5803 5804 5805 5806 5807 5808 5809 5811 5812 5812 5813 5813 5813 5814 5814 5815 5815 5815 5815 5816 5816 5816 5816 5816 5816 5816 5816 5816 5818 5820 5820 5818 5817 5817 5817 5817 5817 5817 5817 5817 5817 5818 5820 5821 5819 5817 5816 5815 5816 5818 5817 5818 5818 5817 5818 5818 5818 5818 5817 5817 5816 5816 5816 5816 5815 5816 5816 5815
5768 5770 5772 5774 5776 5778 5780 5782 5783 5785 5786 5787 5789 5789 5790 5791 5792 5793 5795 5796 5798 5799 5800 5801 5802 5803 5804 5805 5806 5807 5807 5808 5809 5809 5810 5811 5810 5810 5811 5812 5812 5812 5812 5812 5811 5812 5812 5812 5815 5815 5814 5813 5813 5813 5813 5813 5813 5813 5813 5813 5813 5814 5815 5815 5814 5813 5812 5811 5812 5813 5813 5814 5814 5813 5813 5813 5813 5813 5813 5813 5813 5813 5812 5812 5812 5812 5812 5812
5762 5764 5766 5768 5770 5772 5774 5776 5778 5780 5781 5782 5784 5784 5785 5786 5786 5788 5789 5790 5792 5794 5794 5796 5797 5799 5799 5800 5801 5802 5802 5803 5804 5805 5805 5806 5806 5806 5807 5807 5807 5807 5807 5807 5807 5807 5807 5808 5810 5809 5808 5808 5809 5809 5808 5808 5808 5809 5809 5808 5809 5810 5810 5809 5809 5808 5807 5807 5807 5808 5808 5810 5809 5809 5809 5809 5809 5809 5809 5809 5809 5809 5809 5809 5809 5808 5808 5808
5756 5758 5760 5762 5764 5766 5768 5770 5772 5774 5776 5777 5779 5779 5779 5780 5781 5782 5782 5784 5787 5789 5789 5790 5792 5793 5794 5795 5796 5796 5797 5799 5799 5800 5801 5801 5802 5802 5802 5803 5803 5802 5802 5802 5803 5802 5802 5803 5804 5803 5803 5804 5804 5804 5804 5803 5804 5804 5804 5803 5805 5806 5805 5804 5804 5804 5804 5803 5803 5803 5803 5805 5806 5805 5805 5805 5805 5805 5805 5805 5805 5805 5805 5805 5805 5805 5805 5805
5750 5752 5754 5756 5758 5760 5762 5764 5767 5769 5771 5772 5773 5773 5774 5775 5775 5776 5776 5777 5780 5784 5785 5785 5786 5788 5789 5790 5790 5791 5792 5794 5795 5795 5796 5797 5797 5797 5797 5798 5798 5797 5798 5799 5799 5798 5798 5798 5798 5798 5799 5800 5799 5799 5799 5799 5799 5799 5799 5799 5800 5801 5800 5799 5799 5799 5799 5799 5799 5799 5798 5800 5802 5801 5802 5802 5802 5802 5801 5801 5801 5801 5801 5801 5801 5801 5801 5801
5744 5745 5748 5750 5752 5754 5756 5758 5762 5764 5765 5767 5768 5767 5768 5769 5769 5770 5771 5769 5772 5778 5781 5781 5781 5782 5784 5784 5785 5786 5787 5789 5790 5791 5791 5792 5792 5792 5792 5793 5792 5793 5794 5794 5794 5793 5793 5794 5794 5795 5795 5794 5794 5794 5795 5795 5794 5793 5794 5795 5795 5795 5795 5795 5794 5794 5794 5794 5795 5794 5793 5795 5797 5797 5797 5798 5797 5797 5797 5797 5797 5797 5797 5797 5797 5797 5797 5796
5737 5739 5742 5744 5746 5748 5750 5754 5757 5757 5759 5761 5761 5761 5762 5763 5763 5764 5765 5762 5764 5771 5775 5776 5776 5776 5778 5779 5781 5782 5781 5783 5786 5786 5786 5787 5787 5787 5786 5786 5787 5787 5788 5789 5788 5788 5789 5790 5790 5790 5790 5790 5789 5790 5790 5789 5788 5788 5790 5792 5791 5790 5790 5790 5789 5789 5789 5789 5790 5790 5789 5790 5791 5792 5793 5793 5793 5792 5792 5792 5792 5792 5792 5792 5792 5792 5792 5792
5731 5733 5735 5737 5739 5741 5745 5749 5750 5751 5754 5754 5754 5755 5756 5757 5757 5759 5759 5755 5756 5764 5767 5769 5771 5771 5773 5774 5776 5777 5776 5778 5781 5781 5781 5782 5781 5781 5781 5780 5781 5782 5782 5782 5781 5782 5784 5785 5785 5785 5785 5785 5785 5786 5785 5783 5782 5784 5786 5786 5785 5785 5785 5785 5785 5784 5784 5784 5785 5785 5786 5785 5785 5786 5787 5788 5788 5788 5788 5788 5788 5788 5788 5788 5788 5788 5788 5787
5724 5726 5729 5731 5733 5736 5739 5742 5743 5745 5747 5747 5748 5748 5749 5751 5751 5753 5752 5748 5750 5757 5759 5761 5764 5766 5768 5769 5770 5771 5771 5773 5775 5775 5776 5776 5775 5775 5775 5775 5776 5776 5775 5775 5775 5776 5778 5779 5780 5780 5780 5780 5781 5780 5780 5779 5778 5780 5781 5781 5780 5780 5780 5780 5780 5780 5780 5780 5780 5781 5782 5780 5780 5780 5781 5782 5783 5783 5783 5783 5784 5784 5784 5784 5784 5784 5784 5783
5717 5720 5723 5725 5727 5730 5733 5736 5738 5739 5739 5740 5741 5741 5743 5744 5744 5746 5744 5741 5746 5751 5750 5751 5756 5761 5763 5763 5765 5765 5767 5768 5769 5770 5770 5770 5769 5769 5769 5769 5769 5768 5768 5768 5769 5770 5771 5772 5774 5775 5775 5775 5775 5775 5775 5774 5774 5775 5776 5775 5775 5775 5775 5776 5775 5775 5775 5775 5776 5778 5778 5776 5774 5774 5775 5776 5777 5778 5779 5779 5780 5780 5780 5780 5780 5780 5780 5779
5710 5713 5716 5717 5721 5724 5727 5731 5732 5732 5733 5734 5734 5734 5735 5735 5737 5737 5733 5736 5744 5743 5742 5745 5749 5753 5755 5757 5758 5759 5761 5762 5763 5764 5763 5763 5763 5763 5763 5763 5762 5762 5762 5762 5763 5764 5766 5767 5768 5769 5769 5770 5770 5770 5770 5770 5770 5771 5771 5771 5771 5771 5770 5771 5771 5771 5771 5771 5773 5774 5773 5772 5770 5769 5770 5771 5771 5772 5774 5775 5775 5776 5776 5776 5776 5776 5775 5775
5703 5706 5709 5711 5715 5718 5721 5725 5725 5724 5725 5726 5726 5727 5727 5728 5729 5726 5726 5734 5738 5734 5736 5740 5741 5744 5747 5750 5752 5753 5754 5756 5757 5757 5757 5757 5756 5756 5757 5756 5756 5756 5756 5757 5758 5759 5760 5761 5762 5763 5763 5764 5765 5765 5765 5765 5766 5766 5766 5766 5766 5765 5766 5766 5767 5767 5768 5768 5769 5769 5768 5768 5766 5766 5766 5766 5767 5767 5768 5769 5770 5771 5771 5772 5772 5771 5771 5771
5698 5700 5702 5704 5708 5710 5714 5717 5717 5716 5717 5719 5718 5718 5720 5719 5717 5717 5723 5730 5729 5726 5732 5734 5733 5736 5739 5741 5744 5746 5747 5748 5750 5750 5750 5750 5750 5750 5751 5750 5751 5751 5751 5752 5753 5754 5755 5756 5757 5757 5758 5760 5760 5760 5760 5761 5761 5761 5760 5760 5760 5761 5761 5762 5763 5764 5764 5764 5763 5763 5762 5762 5762 5763 5764 5763 5763 5763 5763 5763 5764 5765 5766 5766 5767 5766 5766 5766
5693 5694 5695 5697 5701 5704 5708 5710 5709 5709 5710 5711 5710 5711 5711 5707 5706 5714 5721 5722 5720 5722 5727 5727 5727 5730 5731 5733 5736 5737 5740 5741 5743 5744 5744 5744 5744 5745 5746 5746 5746 5746 5746 5748 5748 5748 5750 5751 5752 5753 5754 5755 5755 5755 5756 5756 5756 5756 5756 5756 5756 5756 5757 5758 5759 5759 5760 5759 5759 5759 5757 5757 5758 5759 5760 5760 5759 5758 5758 5758 5758 5758 5759 5760 5760 5760 5760 5760
5687 5688 5689 5691 5695 5698 5701 5702 5703 5704 5704 5703 5703 5702 5700 5697 5702 5711 5713 5713 5715 5718 5720 5721 5721 5723 5724 5726 5728 5730 5732 5733 5736 5737 5737 5738 5739 5740 5741 5741 5741 5742 5742 5743 5743 5744 5745 5746 5748 5748 5749 5750 5750 5751 5751 5751 5751 5752 5752 5752 5752 5753 5754 5754 5755 5754 5754 5755 5754 5754 5753 5753 5753 5754 5754 5754 5753 5753 5753 5753 5753 5753 5753 5753 5753 5753 5752 5751
5682 5682 5683 5685 5688 5691 5694 5696 5698 5698 5697 5696 5695 5692 5689 5692 5699 5704 5705 5708 5712 5712 5714 5716 5715 5716 5718 5719 5721 5723 5725 5726 5729 5731 5731 5733 5734 5735 5736 5736 5736 5737 5737 5738 5738 5740 5740 5741 5743 5743 5744 5745 5745 5746 5746 5747 5747 5747 5748 5748 5749 5750 5750 5750 5749 5749 5749 5749 5748 5748 5748 5749 5749 5748 5747 5747 5748 5748 5748 5748 5748 5748 5748 5748 5747 5746 5746 5744
5674 5675 5676 5679 5683 5686 5688 5689 5692 5692 5690 5690 5686 5682 5685 5691 5696 5698 5700 5704 5705 5706 5709 5709 5709 5710 5711 5713 5715 5717 5718 5720 5723 5724 5726 5727 5728 5729 5730 5731 5731 5732 5732 5733 5733 5734 5735 5736 5737 5738 5739 5740 5740 5741 5741 5742 5742 5742 5743 5744 5745 5746 5745 5745 5744 5744 5743 5742 5742 5742 5742 5743 5743 5741 5742 5742 5742 5742 5742 5742 5743 5743 5743 5743 5742 5741 5740 5738
5667 5667 5669 5674 5679 5681 5682 5684 5685 5684 5684 5681 5677 5677 5684 5689 5690 5693 5695 5697 5699 5701 5702 5703 5704 5705 5705 5707 5709 5711 5713 5714 5716 5718 5719 5720 5721 5723 5725 5725 5726 5727 5727 5728 5728 5729 5730 5730 5732 5733 5734 5734 5735 5735 5736 5737 5737 5738 5739 5740 5740 5739 5739 5739 5738 5738 5737 5735 5735 5736 5735 5735 5735 5735 5736 5736 5736 5736 5736 5736 5736 5737 5737 5737 5736 5734 5733 5732
5660 5661 5662 5668 5673 5675 5676 5678 5677 5677 5676 5671 5668 5672 5680 5682 5685 5687 5688 5690 5692 5694 5695 5697 5698 5699 5700 5701 5702 5706 5707 5708 5709 5711 5712 5714 5714 5716 5719 5719 5721 5722 5722 5722 5723 5724 5725 5725 5726 5727 5728 5729 5730 5730 5731 5731 5732 5733 5734 5735 5734 5733 5733 5733 5733 5732 5731 5729 5728 5728 5728 5728 5728 5728 5729 5730 5730 5730 5730 5730 5730 5732 5732 5731 5729 5728 5726 5726
5654 5654 5656 5663 5666 5667 5670 5670 5669 5669 5666 5661 5662 5667 5673 5676 5679 5681 5682 5684 5686 5687 5689 5690 5692 5693 5695 5695 5697 5700 5701 5702 5703 5705 5706 5707 5708 5709 5712 5714 5715 5716 5716 5717 5718 5718 5719 5720 5720 5721 5723 5724 5725 5725 5726 5727 5728 5728 5728 5728 5727 5727 5727 5727 5727 5726 5725 5723 5721 5721 5721 5720 5720 5721 5722 5723 5723 5724 5724 5724 5725 5726 5725 5724 5723 5721 5720 5720
5648 5648 5651 5658 5659 5660 5664 5663 5660 5657 5654 5654 5659 5664 5668 5670 5673 5674 5676 5678 5680 5681 5682 5684 5686 5687 5689 5691 5692 5693 5695 5696 5698 5699 5700 5701 5701 5703 5705 5708 5709 5710 5711 5711 5712 5712 5713 5715 5716 5716 5717 5718 5719 5720 5721 5722 5721 5721 5721 5721 5721 5721 5720 5720 5720 5719 5718 5717 5716 5714 5713 5713 5711 5711 5714 5716 5717 5718 5719 5718 5718 5718 5717 5716 5715 5714 5714 5713
5642 5641 5646 5653 5653 5654 5657 5653 5649 5648 5647 5650 5655 5658 5661 5664 5666 5668 5670 5672 5673 5675 5677 5679 5680 5682 5684 5685 5686 5688 5689 5690 5691 5693 5694 5695 5695 5695 5698 5701 5702 5703 5704 5705 5705 5706 5707 5709 5710 5710 5711 5712 5714 5715 5715 5715 5714 5714 5714 5714 5715 5715 5715 5714 5713 5713 5713 5712 5711 5708 5707 5708 5706 5703 5707 5710 5709 5709 5710 5710 5710 5710 5710 5709 5708 5707 5706 5705
5634 5634 5641 5647 5646 5647 5648 5643 5641 5643 5642 5644 5650 5653 5654 5657 5660 5662 5663 5665 5667 5668 5671 5673 5674 5676 5678 5680 5682 5683 5684 5684 5685 5686 5687 5688 5689 5689 5690 5692 5694 5696 5697 5698 5699 5700 5701 5702 5703 5703 5705 5706 5707 5708 5708 5708 5707 5707 5707 5709 5710 5710 5709 5707 5706 5707 5706 5705 5705 5701 5701 5704 5703 5700 5702 5704 5704 5702 5700 5700 5701 5702 5701 5700 5699 5699 5698 5696
5626 5628 5635 5638 5639 5641 5640 5635 5635 5638 5637 5640 5646 5647 5647 5651 5654 5655 5657 5659 5660 5662 5664 5666 5669 5670 5672 5674 5676 5678 5679 5680 5680 5680 5681 5682 5683 5683 5683 5684 5686 5688 5690 5691 5692 5693 5695 5696 5697 5698 5699 5700 5700 5701 5701 5701 5701 5702 5703 5705 5704 5703 5703 5701 5700 5700 5699 5698 5699 5695 5695 5698 5699 5698 5697 5696 5698 5698 5694 5692 5693 5692 5692 5691 5690 5690 5688 5687
5619 5623 5627 5630 5632 5633 5630 5628 5630 5633 5634 5637 5640 5639 5641 5645 5647 5649 5651 5653 5654 5656 5658 5660 5662 5663 5665 5667 5670 5671 5673 5673 5673 5674 5675 5676 5677 5678 5678 5678 5679 5681 5683 5684 5686 5687 5688 5688 5690 5692 5692 5693 5694 5694 5695 5696 5696 5697 5698 5698 5697 5697 5696 5694 5694 5692 5691 5693 5694 5688 5689 5694 5694 5693 5691 5687 5688 5690 5688 5687 5685 5683 5683 5683 5682 5681 5679 5678
5613 5616 5619 5622 5623 5623 5622 5623 5627 5629 5629 5632 5633 5634 5637 5638 5640 5643 5646 5647 5648 5650 5652 5653 5654 5656 5658 5660 5662 5663 5665 5666 5667 5667 5669 5670 5670 5671 5672 5672 5673 5674 5676 5678 5679 5680 5680 5680 5682 5683 5683 5684 5686 5687 5689 5690 5689 5689 5690 5690 5690 5690 5689 5688 5687 5684 5683 5687 5688 5683 5684 5689 5689 5686 5683 5680 5680 5681 5680 5679 5677 5675 5675 5674 5673 5673 5672 5670
5605 5608 5610 5614 5615 5614 5615 5618 5621 5622 5624 5627 5627 5629 5631 5633 5635 5639 5640 5640 5641 5643 5645 5647 5648 5650 5651 5652 5654 5656 5657 5659 5659 5661 5662 5663 5664 5664 5665 5667 5668 5669 5670 5671 5672 5673 5673 5673 5674 5675 5675 5677 5678 5678 5680 5681 5681 5681 5682 5684 5684 5684 5683 5682 5679 5677 5678 5678 5678 5679 5680 5682 5684 5681 5676 5674 5675 5674 5672 5671 5669 5668 5666 5664 5664 5664 5663 5662
5597 5599 5603 5606 5607 5607 5608 5612 5614 5616 5619 5621 5621 5622 5625 5627 5629 5631 5633 5633 5634 5636 5639 5640 5641 5643 5645 5646 5647 5648 5650 5652 5652 5654 5656 5657 5658 5658 5659 5660 5661 5663 5664 5665 5665 5665 5665 5666 5668 5668 5669 5671 5671 5670 5671 5672 5673 5674 5675 5677 5678 5677 5677 5675 5671 5671 5672 5668 5669 5675 5675 5673 5676 5675 5669 5667 5668 5666 5664 5663 5661 5660 5657 5656 5656 5655 5653 5652
5589 5592 5595 5597 5598 5600 5603 5606 5609 5610 5612 5614 5615 5616 5619 5621 5623 5625 5626 5627 5628 5630 5631 5632 5633 5636 5637 5638 5639 5640 5643 5645 5647 5648 5649 5651 5652 5652 5653 5655 5655 5656 5657 5657 5658 5658 5657 5659 5662 5661 5662 5665 5664 5663 5664 5665 5666 5667 5668 5670 5673 5672 5670 5668 5665 5666 5666 5662 5663 5668 5666 5664 5668 5667 5661 5661 5660 5658 5657 5656 5654 5653 5651 5650 5649 5648 5646 5645
5583 5585 5587 5589 5591 5593 5596 5599 5602 5603 5605 5607 5608 5609 5612 5615 5617 5619 5620 5620 5621 5622 5622 5624 5627 5629 5629 5630 5631 5635 5639 5640 5641 5642 5642 5643 5644 5646 5648 5650 5650 5651 5651 5650 5651 5652 5651 5653 5655 5655 5655 5658 5657 5656 5657 5658 5658 5660 5662 5664 5666 5665 5662 5660 5660 5661 5660 5657 5657 5658 5654 5657 5661 5658 5655 5655 5654 5651 5650 5649 5648 5646 5645 5644 5642 5641 5639 5638
5575 5578 5580 5581 5584 5586 5589 5591 5593 5595 5597 5598 5600 5603 5606 5608 5610 5612 5612 5613 5613 5614 5616 5619 5621 5621 5620 5622 5626 5631 5634 5634 5634 5634 5635 5635 5637 5639 5641 5643 5644 5645 5646 5646 5646 5646 5646 5647 5648 5649 5648 5649 5650 5650 5650 5650 5650 5651 5655 5660 5660 5656 5654 5654 5655 5655 5652 5648 5648 5647 5645 5650 5654 5650 5647 5647 5644 5642 5642 5642 5640 5638 5637 5637 5636 5633 5631 5630
5568 5570 5572 5574 5576 5578 5581 5583 5585 5587 5588 5591 5594 5598 5600 5601 5603 5603 5603 5604 5606 5607 5609 5612 5612 5612 5613 5616 5622 5626 5626 5624 5625 5626 5628 5629 5631 5633 5634 5636 5638 5638 5640 5641 5640 5640 5641 5640 5641 5642 5639 5640 5644 5642 5640 5642 5641 5640 5649 5656 5654 5650 5649 5649 5647 5645 5642 5640 5639 5638 5637 5642 5644 5641 5639 5637 5635 5634 5634 5633 5631 5630 5630 5629 5628 5625 5623 5622
5560 5562 5565 5567 5568 5571 5573 5575 5577 5578 5581 5585 5588 5590 5591 5592 5593 5593 5594 5596 5598 5600 5602 5603 5604 5604 5607 5611 5616 5617 5615 5614 5616 5619 5621 5623 5625 5627 5628 5629 5631 5632 5633 5633 5633 5633 5634 5633 5634 5633 5629 5632 5636 5633 5631 5632 5628 5631 5645 5652 5648 5645 5643 5639 5637 5636 5634 5633 5631 5629 5630 5633 5633 5631 5630 5629 5627 5626 5625 5624 5623 5622 5621 5620 5618 5616 5615 5614